(195475) = 2002 GQ126 = 2006 BQ130

Discovered at Socorro on 2002-04-12 by LINEAR.

Orbit

Orbit type: Main Belt

Note: WebGL enabled browser required.

epoch2023-02-25.0
epoch JD2460000.5
perihelion date2022-11-26.10694
perihelion JD2459909.60694
argument of perihelion (°)356.68257
ascending node (°)169.32017
inclination (°)1.19089
eccentricity0.1010251
perihelion distance (AU)2.3311074
Tisserand w.r.t. Jupiter3.4
ΔV w.r.t. Earth (km/sec)9.6
semimajor axis (AU)2.5930728
mean anomaly (°)21.45421
mean daily motion (°/day)0.23603790
aphelion distance (AU)2.855
period (years)4.18
P-vector [x]-0.97030963
P-vector [y]0.22238349
P-vector [z]0.09510419
Q-vector [x]-0.24183546
Q-vector [y]-0.89829845
Q-vector [z]-0.36684535
absolute magnitude17.12
phase slope0.15
uncertainty0
referenceMPO 745323
observations used250
oppositions13
arc length (days)7723
first opposition used2002
last opposition used2023
residual rms (arc-secs)0.78
perturbers coarse indicatorM-v
perturbers precise indicator003Ek
first observation date used2002-04-02.0
last observation date used2023-05-25.0
computer nameMPCLINUX
JD of orbit computation2456700.277646
perihelion JD uncertainty (days)1.3029E-04
argument of perihelion uncertainty (°)2.3905E-04
ascending node uncertainty (°)2.3499E-04
inclination uncertainty (°)6.8901E-06
eccentricity uncertainty 2.6804E-07
perihelion distance uncertainty (AU)7.3953E-07
Minimum Orbit Intersection Distances (in AU)
for orbit epoch: 2460000.5, reference: E2023-KF3
Mercury1.94145
Venus1.61366
Earth1.33841
Mars0.6696
Jupiter2.11272
Saturn6.46897
Uranus16.1109
Neptune27.0373

Observations

251 total observations over interval: 2002 04 02.22160 – 2023 05 25.301711
These data are available for download (format description).

Date (UT) J2000 RA J2000 Dec Magn Location Ref
2002 04 02.22160 12 32 05.26 -02 40 41.6 20.7 V 691 – Steward Observatory, Kitt Peak-Spacewatch MPS 58983
2002 04 02.24278 12 32 04.14 -02 40 34.0 20.4 V 691 – Steward Observatory, Kitt Peak-Spacewatch MPS 58983
2002 04 02.26397 12 32 03.03 -02 40 26.2 20.3 V 691 – Steward Observatory, Kitt Peak-Spacewatch MPS 58983
2002 04 12.25246 12 24 04.77 -01 43 42.9 19.9   704 – Lincoln Laboratory ETS, New Mexico MPS 57531
2002 04 12.26644 12 24 04.10 -01 43 37.7 20.3   704 – Lincoln Laboratory ETS, New Mexico MPS 57531
2002 04 12.29438 12 24 02.68 -01 43 29.3 19.8   704 – Lincoln Laboratory ETS, New Mexico MPS 57531
2002 04 14.20481 12 22 39.87 -01 33 38.3 19.8   704 – Lincoln Laboratory ETS, New Mexico MPS 57531
2002 04 14.23270 12 22 38.59 -01 33 29.7 19.9   704 – Lincoln Laboratory ETS, New Mexico MPS 57531
2002 04 14.24659 12 22 37.96 -01 33 25.8 20.1   704 – Lincoln Laboratory ETS, New Mexico MPS 57531
2002 04 17.20940 12 20 36.83 -01 19 03.9 21.0 V 691 – Steward Observatory, Kitt Peak-Spacewatch MPS 58984
2002 04 17.23151 12 20 35.89 -01 18 57.5 21.3 V 691 – Steward Observatory, Kitt Peak-Spacewatch MPS 58984
2002 04 17.25303 12 20 35.01 -01 18 51.8 21.4 V 691 – Steward Observatory, Kitt Peak-Spacewatch MPS 58984
2004 10 15.35278 02 44 27.84 +14 32 11.6 20.8 R G96 – Mt. Lemmon Survey MPS 178322
2004 10 15.36065 02 44 27.44 +14 32 09.3 20.9 R G96 – Mt. Lemmon Survey MPS 178322
2004 10 15.36857 02 44 27.10 +14 32 06.6 19.7 R G96 – Mt. Lemmon Survey MPS 178322
2004 10 15.37645 02 44 26.69 +14 32 05.9 18.4 R G96 – Mt. Lemmon Survey MPS 178322
2006 01 26.42748 11 18 41.51 +03 51 30.9 20.8 V 691 – Steward Observatory, Kitt Peak-Spacewatch MPS 162026
2006 01 26.44474 11 18 41.28 +03 51 32.5 20.7 V 691 – Steward Observatory, Kitt Peak-Spacewatch MPS 162026
2006 01 26.46207 11 18 41.08 +03 51 34.6 21.9 V 691 – Steward Observatory, Kitt Peak-Spacewatch MPS 162026
2006 01 30.45486 11 17 42.62 +03 59 19.2 20.7 V 691 – Steward Observatory, Kitt Peak-Spacewatch MPS 162026
2006 01 30.47219 11 17 42.27 +03 59 21.5 20.4 V 691 – Steward Observatory, Kitt Peak-Spacewatch MPS 162026
2006 01 30.48950 11 17 41.94 +03 59 24.2 20.5 V 691 – Steward Observatory, Kitt Peak-Spacewatch MPS 162026
2006 02 07.44799 11 14 26.17 +04 23 40.7   691 – Steward Observatory, Kitt Peak-Spacewatch MPS 162755
2006 02 07.46534 11 14 25.58 +04 23 44.6   691 – Steward Observatory, Kitt Peak-Spacewatch MPS 162755
2006 02 07.48269 11 14 25.02 +04 23 48.4   691 – Steward Observatory, Kitt Peak-Spacewatch MPS 162755
2006 02 23.21888 11 03 42.23 +05 40 00.1   691 – Steward Observatory, Kitt Peak-Spacewatch MPS 163746
2006 02 23.23622 11 03 41.36 +05 40 05.8   691 – Steward Observatory, Kitt Peak-Spacewatch MPS 163746
2006 02 23.25363 11 03 40.48 +05 40 11.4   691 – Steward Observatory, Kitt Peak-Spacewatch MPS 163746
2006 03 02.38743 10 57 38.86 +06 22 12.3 19.3 R 695 – Kitt Peak MPS 167002
2006 03 02.43965 10 57 36.06 +06 22 31.0   695 – Kitt Peak MPS 167002
2006 03 02.49178 10 57 33.29 +06 22 49.6   695 – Kitt Peak MPS 167002
2006 03 03.21691 10 56 56.26 +06 27 11.4   691 – Steward Observatory, Kitt Peak-Spacewatch MPS 166020
2006 03 03.23424 10 56 55.33 +06 27 17.5   691 – Steward Observatory, Kitt Peak-Spacewatch MPS 166020
2006 03 03.25158 10 56 54.39 +06 27 24.1   691 – Steward Observatory, Kitt Peak-Spacewatch MPS 166020
2006 03 23.27639 10 41 01.32 +08 17 36.0 20.3 V G96 – Mt. Lemmon Survey MPS 167002
2006 03 23.28390 10 41 01.03 +08 17 37.9 20.3 V G96 – Mt. Lemmon Survey MPS 167002
2006 03 23.29135 10 41 00.70 +08 17 40.0 20.1 V G96 – Mt. Lemmon Survey MPS 167002
2006 03 23.29877 10 41 00.38 +08 17 42.0 20.3 V G96 – Mt. Lemmon Survey MPS 167002
2008 09 06.35862 01 49 50.41 +10 33 16.1 21.4 V G96 – Mt. Lemmon Survey MPS 255788
2008 09 06.36656 01 49 50.30 +10 33 15.5 21.8 V G96 – Mt. Lemmon Survey MPS 255788
2008 09 06.37455 01 49 50.08 +10 33 14.1 21.1 V G96 – Mt. Lemmon Survey MPS 255788
2008 09 06.38253 01 49 49.98 +10 33 13.1 21.8 V G96 – Mt. Lemmon Survey MPS 255788
2008 10 02.25954 01 35 30.82 +08 58 10.8 21.1 V 691 – Steward Observatory, Kitt Peak-Spacewatch MPS 257812
2008 10 02.27714 01 35 29.95 +08 58 05.8 21.1 V 691 – Steward Observatory, Kitt Peak-Spacewatch MPS 257812
2008 10 02.29476 01 35 29.07 +08 58 00.7 20.7 V 691 – Steward Observatory, Kitt Peak-Spacewatch MPS 257812
2008 10 06.26160 01 32 15.99 +08 37 29.0 21.1 V 691 – Steward Observatory, Kitt Peak-Spacewatch MPS 259148
2008 10 06.27921 01 32 15.10 +08 37 23.5 21.3 V 691 – Steward Observatory, Kitt Peak-Spacewatch MPS 259148
2008 10 06.29681 01 32 14.20 +08 37 17.8 20.9 V 691 – Steward Observatory, Kitt Peak-Spacewatch MPS 259148
2008 10 10.26360 01 28 52.56 +08 15 56.1 20.7 V 691 – Steward Observatory, Kitt Peak-Spacewatch MPS 259148
2008 10 10.28123 01 28 51.62 +08 15 50.3 20.4 V 691 – Steward Observatory, Kitt Peak-Spacewatch MPS 259148
2008 10 10.29886 01 28 50.69 +08 15 44.7 20.9 V 691 – Steward Observatory, Kitt Peak-Spacewatch MPS 259148
2008 10 23.27017 01 17 35.95 +07 04 24.5 20.8 V G96 – Mt. Lemmon Survey MPS 260526
2008 10 23.27678 01 17 35.59 +07 04 22.3 20.4 V G96 – Mt. Lemmon Survey MPS 260526
2008 10 23.28340 01 17 35.23 +07 04 20.4 21.1 V G96 – Mt. Lemmon Survey MPS 260526
2008 10 23.29004 01 17 34.87 +07 04 17.9 20.6 V G96 – Mt. Lemmon Survey MPS 260526
2010 01 08.49211 09 39 00.36 +12 45 39.7 20.5 V 291 – LPL/Spacewatch II MPS 310054
2010 01 08.51250 09 38 59.83 +12 45 42.3 20.4 V 291 – LPL/Spacewatch II MPS 310054
2010 01 08.53269 09 38 59.29 +12 45 44.9 20.8 V 291 – LPL/Spacewatch II MPS 310054
2010 01 10.33973 09 38 10.03 +12 50 01.1   691 – Steward Observatory, Kitt Peak-Spacewatch MPS 311080
2010 01 10.35742 09 38 09.44 +12 50 03.5   691 – Steward Observatory, Kitt Peak-Spacewatch MPS 311080
2010 01 10.37511 09 38 08.92 +12 50 06.2   691 – Steward Observatory, Kitt Peak-Spacewatch MPS 311080
2010 02 14.20731 09 10 03.32 +15 15 28.6 19.8 V G96 – Mt. Lemmon Survey MPS 316406
2010 02 14.21564 09 10 02.82 +15 15 30.8 20.0 V G96 – Mt. Lemmon Survey MPS 316406
2010 02 14.22402 09 10 02.38 +15 15 33.2 19.9 V G96 – Mt. Lemmon Survey MPS 316406
2010 02 14.23234 09 10 01.92 +15 15 35.6 20.0 V G96 – Mt. Lemmon Survey MPS 316406
2010 02 14.30601 09 09 57.70 +15 15 54.8 20.3 V 703 – Catalina Sky Survey MPS 316406
2010 02 14.31358 09 09 57.27 +15 15 57.9 19.9 V 703 – Catalina Sky Survey MPS 316406
2010 02 14.32109 09 09 56.84 +15 16 00.9 19.8 V 703 – Catalina Sky Survey MPS 316406
2010 02 14.32860 09 09 56.37 +15 16 01.6 19.9 V 703 – Catalina Sky Survey MPS 316406
2010 02 14.36782 09 09 54.25 +15 16 14.2 19.9 V 703 – Catalina Sky Survey MPS 316406
2010 02 14.37623 09 09 53.74 +15 16 16.2 19.6 V 703 – Catalina Sky Survey MPS 316406
2010 02 14.38465 09 09 53.38 +15 16 19.4 20.1 V 703 – Catalina Sky Survey MPS 316406
2010 02 14.39308 09 09 52.92 +15 16 21.0 20.1 V 703 – Catalina Sky Survey MPS 316406
2010 02 17.23145 09 07 21.85 +15 29 19.2 20.3   704 – Lincoln Laboratory ETS, New Mexico MPS 316406
2010 02 17.24375 09 07 21.21 +15 29 21.6 20.2   704 – Lincoln Laboratory ETS, New Mexico MPS 316406
2010 02 17.25586 09 07 20.46 +15 29 25.8 19.9   704 – Lincoln Laboratory ETS, New Mexico MPS 316406
2010 03 13.22170 08 52 37.88 +16 49 12.7 20.6 V G96 – Mt. Lemmon Survey MPS 319111
2010 03 13.22702 08 52 37.77 +16 49 13.2 20.5 V G96 – Mt. Lemmon Survey MPS 319111
2010 03 13.23233 08 52 37.70 +16 49 13.9 20.7 V G96 – Mt. Lemmon Survey MPS 319111
2010 03 13.23767 08 52 37.59 +16 49 14.6 20.6 V G96 – Mt. Lemmon Survey MPS 319111
2010 04 07.19790 08 55 05.01 +16 57 00.7 21.3 V G96 – Mt. Lemmon Survey MPS 322025
2010 04 07.20396 08 55 05.19 +16 57 00.2 20.9 V G96 – Mt. Lemmon Survey MPS 322025
2010 04 07.21190 08 55 05.41 +16 56 59.6 20.6 V G96 – Mt. Lemmon Survey MPS 322025
2010 04 07.21794 08 55 05.55 +16 56 59.2 21.3 V G96 – Mt. Lemmon Survey MPS 322025
2012 10 06.317050 00 18 12.500 +01 20 50.54 21.1 g F51 – Pan-STARRS 1, Haleakala MPS 437386
2012 10 06.336411 00 18 11.516 +01 20 44.24 21.1 g F51 – Pan-STARRS 1, Haleakala MPS 437386
2012 10 14.26644 00 11 55.68 +00 37 36.0 22.0 V G96 – Mt. Lemmon Survey MPS 437386
2012 10 14.27151 00 11 55.46 +00 37 34.3 21.4 V G96 – Mt. Lemmon Survey MPS 437386
